Temp
15 15 15 15 16 16 16 16 16 17 18 18 16 15 14 13 13 13 13 13 12 13 14 14 14 15 16 16 16 16 16 17 17 18 16 14 11 10 11 8 7 7 6
18 16 16 16 16 17 16 16 17 17 18 18 17 15 14 14 13 13 13 14 13 14 14 14 15 14 15 16 16 16 16 16 16 17 15 13 11 10 10 8 8 8 7
20 18 16 16 16 16 16 17 17 17 18 17 17 16 14 14 13 13 13 14 14 14 14 15 15 15 15 15 15 16 15 16 16 16 17 14 12 11 10 9 8 8 9
19 19 19 17 17 16 17 17 17 18 18 18 17 16 15 14 14 14 14 14 14 14 14 15 15 15 15 15 15 15 15 15 15 16 15 15 13 11 10 10 9 8 9
20 20 19 19 17 17 17 17 18 17 18 18 17 16 15 14 14 14 14 14 15 15 15 15 15 15 15 15 15 15 15 15 15 15 15 15 14 12 11 10 11 11 9
21 20 19 19 18 16 16 17 17 17 17 17 17 17 15 15 15 15 15 15 15 15 15 15 15 15 15 15 15 15 15 15 15 16 16 15 15 14 12 11 11 11 11
19 20 20 19 18 17 16 16 17 17 17 17 17 17 16 15 15 15 15 15 15 15 15 15 14 15 14 14 15 14 15 15 15 15 15 15 15 15 13 12 11 11 11
15 20 19 19 17 16 16 15 16 17 17 17 17 16 16 15 15 15 15 15 15 15 16 15 15 15 15 14 14 13 14 14 14 14 14 15 14 14 14 13 12 11 11
8 11 13 17 17 16 15 15 15 15 15 15 16 15 15 15 15 15 15 14 14 15 15 15 15 16 16 14 13 13 12 13 13 13 13 13 13 13 13 13 12 11 11
5 6 8 11 14 16 15 14 14 14 14 14 13 14 14 14 14 15 15 13 13 15 16 16 16 16 16 14 13 13 13 13 12 12 11 11 12 12 12 12 11 10 10
4 6 7 8 10 13 14 14 13 13 13 13 13 12 13 13 13 14 14 13 13 15 17 16 16 16 15 14 14 13 14 14 13 13 11 10 10 10 10 11 10 11 9
3 5 6 7 9 11 12 13 13 13 12 12 12 12 12 12 13 13 13 13 13 15 16 16 16 15 15 14 14 14 14 14 13 13 12 10 10 9 9 8 9 9 10
2 2 4 4 7 10 11 12 12 12 11 11 11 11 12 11 12 12 13 12 13 14 16 16 16 15 15 13 13 13 13 13 12 12 10 10 9 9 9 9 8 8 8
1 1 2 3 4 4 6 8 9 10 11 11 11 11 11 11 11 12 12 11 11 12 14 15 15 15 14 13 12 11 11 10 11 11 11 9 9 9 9 9 8 8 8
0 0 0 1 2 3 3 3 1 0 2 6 7 9 10 10 11 11 11 11 10 11 12 13 12 11 10 10 9 8 8 8 10 10 10 10 9 9 9 9 9 8 8
-0 -1 -1 -0 0 1 1 2 2 1 1 3 4 6 8 9 9 10 9 10 10 9 10 11 10 10 10 10 10 9 8 7 9 9 9 10 9 9 9 9 9 8 7
-0 -1 -1 -1 -1 -0 -0 -0 0 2 2 1 1 1 4 6 7 8 8 7 8 9 9 10 10 9 10 10 10 10 9 8 8 8 9 7 7 7 7 7 7 7 6
1 1 -0 -1 -1 -1 -1 -1 -1 -1 -1 -1 0 0 1 2 3 4 5 6 6 6 7 7 7 7 7 8 8 8 7 7 6 6 6 5 5 6 6 5 5 4 4
0 0 2 1 -0 -1 -1 -1 -1 -1 -2 -2 -2 -0 -0 -0 1 2 2 1 2 2 3 4 4 4 5 5 5 5 5 5 5 5 4 4 4 3 3 4 3 3 3
1 -0 0 1 1 0 -1 -1 -1 -1 -2 -2 -2 -3 -2 -2 -2 -2 -1 -1 -0 -0 0 1 2 2 3 3 3 3 3 3 3 3 3 3 3 3 3 3 3 3 3
1 1 0 0 -0 -0 -0 -1 -1 -1 -1 -2 -2 -3 -3 -3 -3 -3 -3 -3 -3 -3 -2 -1 -1 0 0 1 1 1 2 2 2 2 2 2 2 2 1 2 2 0 0
1 1 0 -0 -1 -1 -2 -1 -1 -2 -2 -2 -2 -2 -3 -3 -3 -3 -3 -3 -3 -3 -3 -3 -2 -2 -2 -1 -1 -0 -0 -0 -0 0 0 -0 -0 -0 -0 -0 -1 -1 -1
0 -0 -1 -2 -2 -2 -2 -2 -2 -2 -2 -2 -3 -3 -3 -4 -4 -4 -4 -4 -4 -4 -4 -3 -3 -3 -3 -2 -2 -2 -1 -1 -1 -1 -0 -0 -0 -1 -1 -1 -1 -1 -1
-1 -1 -2 -3 -4 -3 -3 -3 -3 -3 -3 -3 -3 -3 -4 -4 -4 -4 -4 -4 -4 -4 -4 -4 -4 -4 -4 -3 -3 -2 -2 -2 -1 -1 -1 -1 -1 -1 -1 -1 -1 -1 -1
-3 -3 -4 -5 -5 -4 -4 -4 -4 -4 -4 -4 -4 -4 -4 -4 -5 -5 -5 -5 -5 -5 -5 -5 -5 -5 -5 -5 -4 -4 -2 -1 -2 -2 -2 -2 -2 -2 -2 -2 -2 -2 -1
-3 -4 -5 -5 -5 -5 -5 -5 -4 -4 -4 -4 -4 -4 -5 -5 -5 -5 -5 -5 -5 -5 -5 -6 -6 -6 -5 -5 -5 -4 -4 -4 -3 -3 -3 -3 -2 -2 -2 -2 -1 -1 -1
Height
773 778 782 786 790 794 798 802 804 807 812 814 816 821 827 830 833 838 843 848 851 856 859 862 865 869 872 874 876 878 878 879 878 877 879 883 886 889 890 892 894 893 893
765 770 774 780 783 786 790 795 798 800 805 808 812 815 820 824 827 829 834 839 842 847 850 854 857 862 865 867 870 872 873 874 874 875 876 879 882 885 887 886 889 889 888
758 760 765 770 773 777 781 787 791 794 798 802 805 808 812 816 820 822 825 830 833 836 841 844 848 853 856 860 862 865 868 869 869 871 871 873 876 879 881 883 883 884 885
751 753 755 759 764 769 774 777 782 786 790 793 797 800 804 808 813 816 819 822 826 828 832 835 838 842 845 850 855 858 861 863 864 865 867 867 870 873 876 877 878 877 878
742 745 747 752 757 762 765 768 772 777 780 785 790 793 796 801 805 806 811 815 818 821 824 827 828 832 836 840 845 849 853 856 857 858 860 862 862 866 868 870 870 871 871
732 735 741 745 749 752 756 760 764 768 772 777 781 784 788 791 794 798 801 805 809 811 814 818 820 824 828 832 836 841 844 847 849 850 851 852 855 857 861 862 865 864 864
726 728 734 739 741 744 749 753 755 759 764 768 772 775 778 781 785 789 793 796 800 801 805 808 810 814 818 822 827 832 836 838 840 843 843 844 847 849 852 853 857 858 856
726 723 728 732 735 739 742 745 747 751 756 760 765 766 770 772 776 780 784 787 790 792 794 797 800 803 806 812 818 820 825 829 831 833 835 839 840 843 844 845 847 849 850
728 725 724 724 728 733 736 738 743 747 750 753 757 759 761 764 765 768 773 776 779 781 783 787 791 794 797 801 809 811 815 818 822 824 828 829 833 835 837 841 840 843 842
733 728 725 724 724 727 731 734 739 742 744 748 750 750 752 753 757 759 760 764 767 770 772 776 781 784 788 792 797 802 805 806 813 815 818 820 823 825 828 830 833 834 835
734 729 726 725 724 724 725 728 732 735 737 739 740 742 743 746 747 746 745 750 753 760 759 763 768 773 778 782 786 793 794 801 804 807 808 811 814 816 818 820 824 827 828
735 732 728 725 721 722 722 723 725 728 730 732 733 732 731 730 735 738 736 740 743 747 746 752 758 762 768 773 777 783 789 795 797 798 800 801 803 805 807 810 813 816 818
738 735 731 726 722 720 720 719 719 721 723 724 725 725 724 722 721 722 728 731 732 736 737 743 750 755 761 766 771 776 781 786 789 791 791 793 794 797 801 804 806 808 809
746 740 735 730 728 724 721 720 719 718 717 717 717 716 716 717 715 714 717 721 723 727 730 737 745 750 753 758 764 769 772 776 778 781 784 787 790 793 794 797 799 801 803
753 746 741 739 737 734 732 730 730 728 722 717 715 714 713 711 709 708 708 710 712 717 727 731 739 744 748 752 756 758 762 768 770 772 775 780 782 785 786 789 792 795 795
760 757 754 750 747 742 740 736 735 735 724 720 715 712 711 710 709 707 704 704 705 711 720 726 736 741 744 748 751 753 755 758 763 766 768 771 774 776 779 783 785 787 788
771 767 762 759 754 749 746 743 741 734 730 727 722 716 713 710 707 706 705 703 709 714 713 724 732 736 741 744 744 747 751 753 756 761 764 766 768 770 773 777 780 781 781
783 779 774 771 768 765 761 755 749 745 740 735 731 728 722 718 713 711 711 713 713 718 721 723 731 735 738 743 743 746 750 752 752 756 760 763 767 768 767 770 774 776 776
793 789 785 782 779 773 768 763 760 755 752 747 741 734 733 732 728 726 723 725 725 725 728 731 734 734 735 744 735 745 748 749 749 751 752 755 757 760 759 759 766 769 770
801 800 796 792 789 785 779 774 770 766 763 760 756 753 746 737 733 734 732 731 732 733 735 736 738 735 733 733 740 742 742 742 745 743 745 752 752 756 756 757 760 762 763
808 804 801 798 795 791 787 783 780 776 773 771 769 765 759 754 752 750 747 743 743 741 739 737 737 736 739 742 742 743 742 742 743 746 746 748 752 752 752 755 756 758 759
814 811 808 806 802 798 795 792 788 786 782 779 777 774 769 765 762 760 758 757 755 752 749 747 747 746 745 744 744 744 743 742 745 745 745 746 748 749 751 751 753 756 756
820 818 816 813 810 807 803 798 796 794 791 788 784 782 778 774 772 769 768 766 764 760 758 756 755 753 751 749 748 748 748 748 746 747 747 748 748 749 750 753 754 755 756
826 823 821 819 816 813 810 807 805 802 799 794 792 790 786 783 782 779 777 774 771 768 765 762 760 759 756 755 754 754 753 752 751 750 750 750 750 751 751 752 755 756 757
832 829 826 824 821 818 816 813 809 806 803 799 796 794 792 790 788 786 782 779 776 774 772 769 767 765 763 761 759 758 758 756 756 758 758 757 757 757 758 760 761 761 762
835 833 831 829 825 822 820 818 814 811 809 806 803 800 798 796 794 792 788 786 783 781 779 776 774 771 768 766 765 765 764 763 763 762 763 764 764 765 765 766 765 766 768
Wind_Speed
34 37 38 37 35 34 31 30 32 33 31 32 33 41 39 40 41 37 34 31 33 32 33 30 29 27 24 22 20 19 17 16 14 14 10 16 18 19 18 19 17 20 19
31 35 37 38 37 36 36 32 29 30 29 32 31 34 39 38 39 40 37 33 34 35 35 32 30 29 29 24 24 23 20 18 17 17 13 15 16 19 19 17 19 19 18
33 33 37 39 38 36 39 40 36 31 31 31 32 33 38 39 38 41 40 37 37 39 39 35 32 31 30 30 27 23 23 21 19 18 16 16 15 17 20 20 19 20 20
32 33 33 40 38 37 36 40 39 37 34 33 32 34 36 37 40 40 38 38 36 38 38 38 35 35 34 32 30 28 23 22 21 19 19 16 17 17 20 21 22 23 22
32 32 35 31 35 36 39 38 38 37 36 35 35 35 37 40 40 40 39 38 37 37 37 38 37 38 38 34 31 29 28 25 22 20 20 19 17 18 23 22 22 20 24
31 31 31 32 31 34 37 39 37 35 34 33 33 33 36 39 41 44 42 39 39 38 37 38 37 40 40 38 37 32 32 29 27 23 21 20 21 20 22 22 21 20 18
23 30 28 30 30 31 32 36 36 34 32 33 32 33 35 39 41 45 48 42 39 39 39 37 37 35 41 40 40 40 35 35 32 27 25 23 20 23 22 23 23 23 22
18 23 27 27 27 29 29 31 27 30 32 31 32 32 35 36 42 45 49 50 38 40 40 39 37 37 37 38 34 40 44 39 39 37 29 24 24 22 23 26 24 24 23
14 9 10 19 28 28 28 28 27 25 27 29 32 32 33 36 40 47 52 52 41 38 39 39 38 36 36 38 34 32 32 37 34 40 36 31 30 27 25 22 23 21 22
18 15 12 10 13 24 26 27 28 30 33 30 31 32 35 38 41 46 56 49 43 38 38 38 40 36 36 38 39 32 31 33 30 27 35 37 37 35 32 32 24 24 22
20 15 13 12 14 14 27 30 28 27 27 31 30 32 33 36 40 44 58 47 40 39 34 34 35 42 38 39 40 35 36 28 29 29 25 27 28 31 30 35 33 26 26
22 17 15 16 15 17 16 23 28 26 26 26 27 30 34 39 42 41 49 56 43 38 35 33 34 37 45 41 39 40 34 30 26 28 27 25 25 27 29 29 36 37 31
26 24 22 22 22 9 13 18 19 24 24 24 25 27 30 32 37 48 47 56 55 38 29 31 30 33 34 39 37 39 38 29 29 25 25 27 26 25 24 24 26 27 31
28 29 28 29 27 36 23 14 12 8 16 22 23 25 28 28 30 34 47 50 54 44 25 25 29 26 31 32 33 40 39 35 29 28 26 23 22 22 24 24 24 24 23
31 33 32 29 28 24 24 34 27 33 24 9 10 15 19 22 31 37 44 41 43 43 28 21 19 21 24 23 23 24 33 30 29 28 25 23 22 22 22 22 23 21 22
35 33 32 29 28 27 25 24 26 26 40 35 22 7 11 23 21 23 29 36 31 34 28 20 18 19 19 20 21 22 23 27 27 26 25 23 22 23 21 21 21 23 19
33 34 33 34 33 32 31 28 25 30 33 41 41 37 24 8 2 9 11 12 14 24 22 18 17 19 20 20 21 19 19 22 24 24 22 21 22 18 20 20 18 18 18
31 31 31 31 31 29 27 26 26 27 27 32 37 36 35 31 25 18 5 8 13 8 6 6 3 4 7 11 10 11 14 17 18 22 23 20 21 23 20 21 23 23 24
32 30 26 27 28 29 29 29 29 29 29 29 32 38 35 29 33 31 28 25 19 16 10 5 2 2 3 12 8 17 21 21 21 23 25 27 29 28 26 27 27 27 26
25 29 26 24 25 26 27 27 27 27 27 28 31 32 32 35 37 34 35 31 27 24 20 16 11 9 8 5 6 10 12 13 16 15 18 23 23 25 23 19 20 20 19
23 23 26 25 25 25 25 26 25 25 25 25 26 33 32 29 28 30 30 31 29 28 27 25 22 20 15 12 8 4 4 4 5 7 8 11 13 14 15 16 16 15 14
22 22 22 23 23 24 24 24 25 24 24 24 24 26 29 28 27 26 27 28 29 29 28 27 27 26 23 20 17 14 12 10 7 4 3 4 6 8 9 9 9 9 8
21 21 20 21 21 21 21 22 23 22 21 22 23 23 25 26 25 25 25 24 23 23 24 25 25 24 23 23 22 21 17 14 11 10 7 4 3 3 3 4 4 4 5
21 20 20 19 20 20 20 20 19 20 20 20 21 21 22 22 23 23 22 23 23 24 23 23 23 22 21 20 20 19 18 18 19 19 14 13 12 10 10 11 11 12 12
19 19 18 18 19 19 19 19 20 19 20 20 20 21 21 21 22 23 22 21 22 23 23 24 23 21 21 20 20 18 15 14 15 15 16 18 20 20 20 18 16 16 15
17 16 15 16 18 19 18 19 18 19 19 19 19 20 19 20 21 21 22 21 21 21 20 22 21 21 21 22 22 20 20 19 19 19 18 18 18 17 17 16 16 16 15
Wind_Direction
204 208 215 215 219 216 215 224 224 223 227 216 205 207 212 208 206 202 205 205 205 208 208 209 212 214 219 215 218 222 226 227 237 250 184 198 198 207 219 218 219 226 241
213 213 215 218 219 217 215 223 222 222 227 222 214 209 211 211 205 203 205 206 204 207 206 206 209 211 216 216 215 221 229 231 233 239 204 190 203 211 214 216 219 228 229
232 215 215 219 220 219 218 223 226 222 221 222 215 211 210 215 211 207 206 208 207 208 208 206 206 208 211 215 219 222 228 230 226 236 243 205 204 210 215 222 226 228 236
230 225 221 216 220 221 221 220 222 222 223 225 219 214 213 214 214 212 209 210 211 210 211 209 205 208 208 211 215 218 223 224 224 227 233 226 207 214 217 221 225 229 234
225 224 226 225 217 222 224 224 221 219 219 221 221 218 215 214 215 209 209 212 213 211 211 211 208 210 211 210 210 214 216 221 222 219 228 236 216 214 213 225 232 230 231
221 222 226 229 222 220 222 226 222 216 215 217 221 221 219 216 215 215 210 212 214 211 210 212 211 213 214 215 215 215 215 214 218 222 223 227 235 217 221 222 231 230 234
259 221 224 228 226 220 220 225 224 218 220 222 224 225 224 219 220 220 218 213 213 212 211 211 209 213 217 218 220 222 224 221 220 221 229 229 236 230 222 220 227 231 233
287 239 219 225 225 220 218 222 223 216 218 218 223 222 227 224 224 223 220 217 214 215 212 211 208 210 215 212 215 221 224 226 224 224 228 236 236 240 229 228 229 235 239
348 340 313 245 216 221 215 215 221 220 220 222 227 226 228 230 227 223 220 216 216 216 212 211 213 212 213 217 210 213 216 224 227 227 230 233 235 236 231 231 225 227 233
341 329 312 294 249 222 215 210 218 221 225 223 229 233 232 233 233 236 219 213 214 220 213 214 217 215 215 216 213 209 212 219 214 222 230 234 234 233 231 224 223 224 230
346 336 330 307 274 236 216 218 220 224 226 230 230 230 235 240 238 237 223 212 210 220 211 210 213 216 215 218 217 211 219 217 215 217 218 229 231 231 230 227 224 228 226
8 4 359 341 299 263 240 223 220 223 226 231 231 233 231 232 236 236 228 220 211 218 209 209 213 217 217 218 218 224 221 223 215 216 217 217 218 220 223 225 230 228 233
18 15 18 19 26 347 269 255 228 224 225 230 233 240 241 234 229 230 235 226 213 218 210 211 215 215 217 221 220 226 225 221 216 217 214 220 219 221 224 226 230 233 236
22 21 21 25 28 35 30 30 16 308 249 242 241 239 239 235 228 224 225 226 218 221 208 211 217 214 211 214 221 225 227 221 217 218 222 223 221 221 223 224 224 228 231
25 25 23 24 26 32 33 40 50 47 42 14 318 260 246 238 228 225 222 217 215 216 209 198 190 188 189 198 208 216 222 220 219 219 220 221 219 220 222 222 227 229 234
28 24 21 24 24 30 30 29 39 33 46 48 45 6 271 251 243 225 214 216 218 212 195 194 184 190 196 202 209 208 208 211 217 219 219 222 219 217 220 226 226 229 240
24 24 25 24 23 22 24 24 15 23 41 44 42 48 47 19 256 221 208 199 207 201 183 196 193 199 209 218 212 210 211 210 214 221 223 219 213 214 219 226 229 240 256
24 26 29 26 25 26 25 27 29 27 23 16 34 42 47 53 56 54 63 172 141 148 139 109 124 168 200 234 234 221 217 212 214 223 227 225 228 227 224 233 246 249 246
26 23 26 31 26 26 30 33 34 32 30 26 22 32 36 42 57 63 70 60 61 56 36 16 324 305 272 253 271 264 259 252 250 245 239 243 242 235 231 233 239 254 253
24 26 29 29 27 28 27 29 31 32 32 32 30 23 23 36 36 32 42 48 49 54 58 56 51 50 31 10 293 284 274 268 258 261 262 256 252 249 240 253 250 244 250
20 23 24 27 28 24 26 27 26 28 30 30 30 32 38 40 39 38 36 38 40 42 51 54 52 54 55 54 46 17 350 331 308 278 267 266 258 257 264 256 260 263 268
21 20 25 24 24 25 24 26 25 25 27 27 25 25 30 35 37 37 39 40 47 52 53 56 56 55 55 54 54 56 54 51 35 6 321 293 287 280 274 275 278 279 288
20 23 24 25 23 22 23 24 25 25 24 26 25 25 28 31 31 33 36 38 40 43 47 48 48 49 51 52 51 47 44 38 35 29 17 351 3 26 37 32 23 29 27
19 21 23 20 19 22 22 23 23 24 25 26 26 26 28 29 30 35 37 37 40 41 43 44 43 40 44 49 49 48 51 53 56 53 56 62 67 70 74 75 72 71 67
19 19 19 19 18 17 19 21 20 21 24 24 25 26 28 30 33 35 38 41 42 46 42 45 45 44 42 47 47 48 51 57 64 65 64 68 74 77 79 75 72 69 68
19 20 18 17 17 18 18 16 18 21 23 23 25 27 28 29 33 35 38 42 44 44 43 41 43 44 49 51 55 60 63 68 69 70 72 73 73 73 73 74 75 71 70